Location: Newark
(27.9675°N, 86.8869°E)
Time: 01:59:46
(UTC+00:00)

Altair - Pass Details

Date: 30 October 2019
Orbit: 1502 x 1682 km, 47.2° (Epoch: 12 November)

Event Time Altitude Azimuth Distance (km) Brightness Sun altitude
Rises 04:22:15 0° 281° (W) 4,673 9.7 42.6°
Reaches altitude 10° 04:26:01 10° 294° (WNW) 3,714 9.3 43.0°
Maximum altitude 04:33:32 26° 348° (NNW) 2,723 8.7 43.8°
Drops below altitude 10° 04:41:17 10° 41° (NE) 3,830 9.5 44.6°
Sets 04:45:16 0° 54° (NE) 4,847 10.0 45.0°
